Starlink 2435

operational
NORAD ID: 47843 Int'l Des: 2021-018 Owner: SPXS Country: US Constellation: starlink
LEOCIRCULARSTARLINK_TYPE

About Starlink 2435

Description loading...

Live Position

Loading 3D Globe...

Upcoming Passes

Altitude History

Altitude vs Time

uPlot chart will show altitude changes over time

Two-Line Element Set

1 47843U 21018BJ 25354.14855019 .00001405 00000-0 11322-3 0 9992
2 47843 53.0541 253.6902 0001567 91.5099 268.6070 15.06405997264552
Epoch: Dec 20, 2025 • Age: 12 hours

Current Status

Altitude 565.0 km
Velocity 7.58 km/s
Sub-Earth Point -48.90°S, 163.67°E
Launch Date Mar 11, 2021
Age 4.7 years
Type internet

Technical Details

Classification Payload
Mass 260.00 kg
Dry Mass 248.00 kg
Total Mass 260.00 kg
Length 0.20 m
Diameter 2.80 m
Span 9.00 m
Shape Box + pan
Manufacturer SPXS
Bus Type Starlink
Phase Status In Orbit
Owner/State SPXS/US

Large Constellations

Loading constellations...